Weather History for Yellowstone, WY

Change the Weather History Date:

Monday, October 24, 2011

  Actual Average Record
Temperature  
Mean Temperature 38 °F 33 °F  
Max Temperature 50 °F 45 °F 57 °F (2005)
Min Temperature 27 °F 21 °F 10 °F (2004)
Degree Days  
Heating Degree Days 26 32  
Month to date heating degree days 674  
Since 1 July heating degree days 1809  
Cooling Degree Days 0 0  
Month to date cooling degree days 0  
Year to date cooling degree days 0  
Moisture  
Dew Point 29 °F    
Average Humidity 76    
Maximum Humidity 96    
Minimum Humidity 43    
Precipitation  
Precipitation 0.58 in 0.06 in 0.78 in (2010)
Month to date precipitation 1.01  
Year to date precipitation 16.38  
Sea Level Pressure  
Sea Level Pressure 29.99 in    
Wind  
Wind Speed 3 mph (WNW)    
Max Wind Speed 13 mph    
Max Gust Speed 31 mph    
T = Trace of Precipitation, MM = Missing Value Source: NWS Daily Summary

Daily Weather History Graph

Daily Weather History Graph

Search for Another Location

Airport:

Trip Planner

Search our weather history database for the weather conditions in past years. The results will help you decide how hot, cold, wet, or windy it might be!

Date:

Astronomy

Oct. 24, 2011 Rise Set
Actual Time 7:48 AM MDT 6:22 PM MDT
Civil Twilight 7:18 AM MDT 6:52 PM MDT
Nautical Twilight 6:44 AM MDT 7:26 PM MDT
Astronomical Twilight 6:10 AM MDT 8:00 PM MDT
Moon 5:06 AM MDT (10/24) 4:52 PM MDT (10/24)
Length of Visible Light 11h 34m
Length of Day
10h 34m
Waning Crescent, 7% of the Moon is Illuminated
Oct 24
Waning Crescent
Oct 26
New
Nov 2
First Quarter
Nov 10
Full
Nov 18
Last Quarter

Hourly Weather History & Observations

Time (MDT) Temp. Windchill Dew Point Humidity Pressure Visibility Wind Dir Wind Speed Gust Speed Precip Events Conditions
12:56 AM 28.9 °F 25.2 °F 26.1 °F 89% 30.12 in - NNW 3.5 mph - N/A   Unknown
1:56 AM 28.0 °F - 26.1 °F 92% 30.08 in - Calm Calm - N/A   Unknown
2:56 AM 28.9 °F 25.2 °F 27.0 °F 92% 30.05 in - NW 3.5 mph - N/A   Unknown
3:56 AM 28.9 °F - 28.0 °F 96% 30.02 in - Calm Calm - N/A   Unknown
4:56 AM 28.9 °F - 27.0 °F 92% 30.01 in - Calm Calm - N/A   Unknown
5:56 AM 28.9 °F - 27.0 °F 92% 30.01 in - Calm Calm - N/A   Unknown
6:56 AM 28.0 °F - 26.1 °F 92% 30.05 in - Calm Calm - N/A   Unknown
7:56 AM 27.0 °F - 26.1 °F 96% 30.07 in - Calm Calm - N/A   Unknown
8:56 AM 33.1 °F - 30.0 °F 89% 30.04 in - Calm Calm - N/A   Unknown
9:56 AM 41.0 °F - 30.9 °F 67% 30.01 in - Calm Calm - N/A   Unknown
10:56 AM 46.0 °F 41.9 °F 28.9 °F 51% 29.97 in - WSW 8.1 mph - N/A   Unknown
11:56 AM 46.9 °F - 28.0 °F 48% 29.96 in - WSW 8.1 mph - N/A   Unknown
12:56 PM 48.9 °F - 28.0 °F 44% 29.92 in - Variable 5.8 mph - N/A   Unknown
1:56 PM 50.0 °F - 28.0 °F 43% 29.91 in - West 8.1 mph 23.0 mph N/A   Unknown
2:56 PM 48.0 °F - 28.0 °F 46% 29.90 in - West 12.7 mph 31.1 mph N/A   Unknown
3:56 PM 46.9 °F - 28.0 °F 48% 29.91 in - Variable 3.5 mph - N/A   Unknown
4:56 PM 46.0 °F 43.1 °F 28.9 °F 51% 29.91 in - Variable 5.8 mph - N/A   Unknown
5:56 PM 43.0 °F 39.5 °F 28.9 °F 58% 29.94 in - Variable 5.8 mph - N/A   Unknown
6:56 PM 39.9 °F 35.1 °F 33.1 °F 77% 29.97 in - Variable 6.9 mph - N/A   Unknown
7:56 PM 36.0 °F 31.1 °F 33.1 °F 89% 29.99 in - West 5.8 mph - 0.04 in   Unknown
8:56 PM 35.1 °F - 33.1 °F 92% 29.98 in - Calm Calm - 0.02 in   Unknown
9:56 PM 33.1 °F 30.0 °F 32.0 °F 96% 29.95 in - WNW 3.5 mph - 0.16 in   Unknown
10:56 PM 33.1 °F 25.5 °F 30.9 °F 92% 29.93 in - West 9.2 mph - 0.15 in   Unknown
11:56 PM 30.0 °F 21.7 °F 27.0 °F 88% 29.97 in - NW 9.2 mph 20.7 mph 0.21 in   Unknown